Terminal Aerodrome Forecast
Issued by NWS

Home | Current Version | Previous Version | Text Only | Print | Product List | Glossary On
Versions: 1 2 3 4 5 6 7 8 9 10 11 12 13 14 15 16 17 18 19 20 21 22
000
FTUS46 KPDT 170540
TAFPSC
TAF
KPSC 170540Z 1706/1806 VRB03KT 6SM BR SCT022
      TEMPO 1706/1708 BKN022
     FM170800 34003KT 5SM BR SCT022 BKN100
     FM171800 34004KT 5SM -FZRAPL SCT020 BKN050
     FM172100 35005KT 6SM HZ VCSH SCT025 BKN080
     FM180400 30006KT 5SM -FZRA BKN035 OVC080=

USA.gov is the U.S. government's official web portal to all federal, state and local government web resources and services.